Location: Long Island Community Building
(39.9491°N, 99.5338°W)
Time: 13:50:07
(UTC+00:00)

Cosmos 1733 Rocket - Pass Details

Date: 06 December 2019
Orbit: 604 x 627 km, 82.5° (Epoch: 27 January)

Event Time Altitude Azimuth Distance (km) Brightness Sun altitude
Rises 13:00:47 0° 177° (S) 2,848 6.8 -8.5°
Reaches altitude 10° 13:03:01 10° 174° (S) 1,947 6.0 -8.1°
Maximum altitude 13:07:15 60° 94° (E) 694 3.7 -7.4°
Drops below altitude 10° 13:11:30 10° 15° (NNE) 1,959 5.5 -6.6°
Sets 13:13:45 0° 12° (NNE) 2,868 6.3 -6.2°
